TimeAST,TemperatureF,Dew PointF,Humidity,Sea Level PressureIn,VisibilityMPH,Wind Direction,Wind SpeedMPH,Gust SpeedMPH,PrecipitationIn,Events,Conditions,WindDirDegrees,DateUTC
12:00 AM,78.8,71.6,78,29.98,6.2,Variable,3.5,-,N/A,,Partly Cloudy,0,2011-11-25 04:00:00
2:00 AM,80,73,73,29.96,25,ESE,3.5,,,,Partly Cloudy,110,2011-11-25 06:00:00
2:00 AM,80.6,73.4,79,29.95,6.2,Variable,3.5,-,N/A,,Scattered Clouds,0,2011-11-25 06:00:00
3:00 AM,78.8,73.4,83,29.92,6.2,East,3.5,-,N/A,,Partly Cloudy,90,2011-11-25 07:00:00
4:00 AM,78.8,73.4,83,29.92,6.2,East,5.8,-,N/A,,Partly Cloudy,90,2011-11-25 08:00:00
5:00 AM,80.6,73.4,79,29.92,6.2,East,5.8,-,N/A,,Partly Cloudy,90,2011-11-25 09:00:00
6:00 AM,78.8,73.4,83,29.95,6.2,East,4.6,-,N/A,,Partly Cloudy,80,2011-11-25 10:00:00
7:00 AM,78.8,73.4,83,29.95,6.2,East,5.8,-,N/A,,Partly Cloudy,90,2011-11-25 11:00:00
8:00 AM,82,73,68,29.97,37,East,5.8,,,,Partly Cloudy,80,2011-11-25 12:00:00
8:00 AM,82.4,73.4,74,29.95,6.2,East,5.8,-,N/A,,Scattered Clouds,80,2011-11-25 12:00:00
9:00 AM,84.2,73.4,70,29.98,6.2,ESE,8.1,-,N/A,,Scattered Clouds,110,2011-11-25 13:00:00
10:00 AM,86.0,73.4,66,29.98,6.2,ESE,6.9,-,N/A,,Scattered Clouds,110,2011-11-25 14:00:00
11:00 AM,84,73,62,29.99,40,ESE,9.2,,,,Partly Cloudy,110,2011-11-25 15:00:00
12:00 PM,86.0,75.2,70,29.95,6.2,SE,8.1,-,N/A,,Mostly Cloudy,140,2011-11-25 16:00:00
1:00 PM,86.0,75.2,70,29.92,6.2,SE,9.2,-,N/A,,Mostly Cloudy,140,2011-11-25 17:00:00
2:00 PM,83,74,66,29.91,31,SSE,6.9,,,,Partly Cloudy,160,2011-11-25 18:00:00
3:00 PM,84.2,73.4,70,29.89,6.2,ESE,5.8,-,N/A,,Scattered Clouds,110,2011-11-25 19:00:00
3:24 PM,80.6,71.6,74,29.89,2.2,ESE,8.1,-,N/A,Rain,Rain Showers,120,2011-11-25 19:24:00
4:00 PM,82.4,73.4,74,29.89,6.2,East,8.1,-,N/A,,Scattered Clouds,90,2011-11-25 20:00:00
5:00 PM,83,72,62,29.89,12,East,6.9,,,,Partly Cloudy,100,2011-11-25 21:00:00
5:00 PM,82.4,71.6,70,29.89,6.2,East,6.9,-,N/A,,Scattered Clouds,100,2011-11-25 21:00:00
6:00 PM,82.4,73.4,74,29.89,6.2,ESE,6.9,-,N/A,,Scattered Clouds,110,2011-11-25 22:00:00
7:00 PM,80.6,71.6,74,29.89,6.2,East,5.8,-,N/A,,Mostly Cloudy,100,2011-11-25 23:00:00
8:00 PM,81,73,70,29.92,31,ESE,4.6,,,,Partly Cloudy,120,2011-11-26 00:00:00
8:00 PM,80.6,73.4,79,29.92,6.2,ESE,4.6,-,N/A,,Mostly Cloudy,110,2011-11-26 00:00:00
10:00 PM,77.0,71.6,83,29.95,6.2,Variable,3.5,-,N/A,,Mostly Cloudy,0,2011-11-26 02:00:00
11:00 PM,78,74,82,29.94,25,,2.3,,,Rain,Light Rain Showers,,2011-11-26 03:00:00
11:00 PM,78.8,73.4,83,29.92,6.2,Variable,2.3,-,N/A,Rain,Light Rain Showers,0,2011-11-26 03:00:00